CPA138 YSSY-VHHX

Flight info

Callsign CPA138
Flight time N/A
Altitude 36000
Route RIC H530 SURVO/N0484F380 R340 AMN A461 BONDA/N0480F400 A461 ZAM A583 SABNO
Aircraft B772/H-SDE2E3FGHIJ5LORVWXY/LB1D1

Departure

Time 2026-04-22 16:32
Airport Sydney Kingsford Smith International Airport (YSSY)

Arrival

Time N/A
Airport Hong Kong International Airport Kai Tak (VHHX)
Time Latitude Longitude Altitude Speed Heading
2026-04-22 16:06 -33.93479 151.16794 34 ft 0 kts 258°
2026-04-22 16:24 -33.93477 151.16804 34 ft 4 kts 262°
2026-04-22 16:24 -33.93476 151.16836 32 ft 4 kts 280°
2026-04-22 16:25 -33.93481 151.16867 33 ft 4 kts 265°
2026-04-22 16:25 -33.93452 151.16905 32 ft 4 kts 183°
2026-04-22 16:25 -33.93434 151.16904 34 ft 0 kts 167°
2026-04-22 16:26 -33.93448 151.16908 32 ft 0 kts 167°
2026-04-22 16:29 -33.93477 151.16913 30 ft 8 kts 172°
2026-04-22 16:29 -33.93510 151.16959 34 ft 9 kts 96°
2026-04-22 16:29 -33.93495 151.17065 34 ft 14 kts 65°
2026-04-22 16:29 -33.93426 151.17087 34 ft 11 kts 343°
2026-04-22 16:30 -33.93365 151.17066 34 ft 14 kts 343°
2026-04-22 16:30 -33.93263 151.16973 34 ft 14 kts 325°
2026-04-22 16:30 -33.93167 151.16940 34 ft 15 kts 347°
2026-04-22 16:30 -33.93068 151.16914 34 ft 15 kts 347°
2026-04-22 16:31 -33.92985 151.16958 34 ft 15 kts 67°
2026-04-22 16:31 -33.92960 151.17076 35 ft 14 kts 77°
2026-04-22 16:31 -33.93004 151.17174 35 ft 14 kts 154°
2026-04-22 16:31 -33.93103 151.17202 35 ft 19 kts 168°
2026-04-22 16:32 -33.93438 151.17290 31 ft 86 kts 167°
2026-04-22 16:32 -33.94240 151.17495 35 ft 151 kts 167°
2026-04-22 16:32 -33.95440 151.17787 232 ft 188 kts 170°
2026-04-22 16:32 -33.96708 151.18099 1172 ft 180 kts 168°
2026-04-22 16:33 -33.97967 151.18133 1953 ft 189 kts 184°
2026-04-22 16:33 -33.99344 151.17936 2160 ft 209 kts 184°
2026-04-22 16:33 -34.00838 151.17748 2513 ft 219 kts 184°
2026-04-22 16:33 -34.02382 151.17563 2978 ft 225 kts 182°
2026-04-22 16:34 -34.03927 151.17832 3392 ft 227 kts 162°
2026-04-22 16:34 -34.05482 151.18412 3720 ft 241 kts 164°
2026-04-22 16:34 -34.07153 151.18596 4041 ft 250 kts 193°
2026-04-22 16:34 -34.08699 151.17558 4433 ft 268 kts 225°
2026-04-22 16:35 -34.09692 151.15554 4636 ft 294 kts 251°
2026-04-22 16:35 -34.09970 151.13004 4830 ft 322 kts 272°
2026-04-22 16:35 -34.09406 151.10301 5155 ft 344 kts 296°
2026-04-22 16:35 -34.07910 151.08012 5770 ft 354 kts 321°
2026-04-22 16:36 -34.05802 151.06436 6428 ft 361 kts 334°
2026-04-22 16:36 -34.03510 151.05146 7138 ft 367 kts 337°
2026-04-22 16:36 -34.01162 151.03879 7867 ft 371 kts 337°
2026-04-22 16:36 -33.98811 151.02558 8626 ft 375 kts 336°
2026-04-22 16:37 -33.96482 151.01183 9355 ft 380 kts 335°
2026-04-22 16:37 -33.94205 150.99784 10050 ft 384 kts 334°
2026-04-22 16:37 -33.91817 150.98278 10715 ft 389 kts 334°
2026-04-22 16:37 -33.89415 150.96741 11414 ft 393 kts 334°
2026-04-22 16:38 -33.86997 150.95182 12154 ft 396 kts 334°
2026-04-22 16:38 -33.84543 150.93596 12926 ft 401 kts 334°
2026-04-22 16:38 -33.82075 150.92001 13721 ft 405 kts 334°
2026-04-22 16:38 -33.79573 150.90384 14484 ft 410 kts 334°
2026-04-22 16:39 -33.77048 150.88756 15189 ft 415 kts 334°
2026-04-22 16:39 -33.74486 150.87107 15882 ft 420 kts 334°
2026-04-22 16:39 -33.71896 150.85439 16589 ft 425 kts 334°
2026-04-22 16:39 -33.69268 150.83748 17289 ft 431 kts 334°
2026-04-22 16:40 -33.66604 150.82035 17994 ft 436 kts 334°
2026-04-22 16:40 -33.63947 150.80328 18688 ft 442 kts 333°
2026-04-22 16:40 -33.58704 150.76356 20002 ft 450 kts 323°
2026-04-22 16:41 -33.56338 150.73874 20697 ft 453 kts 316°
2026-04-22 16:41 -33.54073 150.71219 21383 ft 456 kts 315°
2026-04-22 16:41 -33.51801 150.68541 22024 ft 460 kts 315°
2026-04-22 16:41 -33.49498 150.65843 22652 ft 464 kts 315°
2026-04-22 16:42 -33.47173 150.63143 23275 ft 467 kts 316°
2026-04-22 16:42 -33.44820 150.60429 23885 ft 470 kts 316°
2026-04-22 16:42 -33.42451 150.57704 24365 ft 474 kts 315°
2026-04-22 16:42 -33.40065 150.54962 24845 ft 477 kts 315°
2026-04-22 16:43 -33.37695 150.52236 25277 ft 480 kts 315°
2026-04-22 16:43 -33.35248 150.49421 25726 ft 483 kts 315°
2026-04-22 16:43 -33.32852 150.46663 26154 ft 486 kts 315°
2026-04-22 16:43 -33.30380 150.43821 26582 ft 488 kts 315°
2026-04-22 16:44 -33.27960 150.41040 27000 ft 490 kts 314°
2026-04-22 16:44 -33.25496 150.38210 27409 ft 493 kts 314°
2026-04-22 16:44 -33.23008 150.35356 27786 ft 495 kts 314°
2026-04-22 16:44 -33.20520 150.32505 28168 ft 497 kts 314°
2026-04-22 16:45 -33.18022 150.29644 28554 ft 498 kts 314°
2026-04-22 16:45 -33.15516 150.26778 28915 ft 500 kts 314°
2026-04-22 16:45 -33.12999 150.23901 29255 ft 502 kts 314°
2026-04-22 16:45 -33.10468 150.21008 29542 ft 505 kts 314°
2026-04-22 16:46 -33.07928 150.18109 29806 ft 507 kts 314°
2026-04-22 16:46 -33.05379 150.15203 30074 ft 508 kts 314°
2026-04-22 16:46 -33.02822 150.12290 30378 ft 509 kts 314°
2026-04-22 16:46 -33.00264 150.09378 30684 ft 508 kts 313°
2026-04-22 16:47 -32.97718 150.06482 31032 ft 506 kts 313°
2026-04-22 16:47 -32.95177 150.03594 31387 ft 504 kts 313°
2026-04-22 16:47 -32.93499 150.01688 31618 ft 502 kts 313°
2026-04-22 16:47 -32.90238 149.97988 32039 ft 500 kts 313°
2026-04-22 16:48 -32.87749 149.95167 32356 ft 499 kts 313°
2026-04-22 16:48 -32.85240 149.92323 32667 ft 497 kts 313°
2026-04-22 16:48 -32.82741 149.89493 33008 ft 495 kts 313°
2026-04-22 16:48 -32.80244 149.86666 33403 ft 491 kts 313°
2026-04-22 16:49 -32.77777 149.83876 33838 ft 488 kts 313°
2026-04-22 16:49 -32.75328 149.81110 34163 ft 486 kts 313°
2026-04-22 16:49 -32.72880 149.78343 34432 ft 485 kts 313°
2026-04-22 16:49 -32.70437 149.75580 34660 ft 485 kts 313°
2026-04-22 16:50 -32.67991 149.72815 34895 ft 485 kts 313°
2026-04-22 16:50 -32.65551 149.70058 35140 ft 484 kts 313°
2026-04-22 16:50 -32.63112 149.67305 35378 ft 483 kts 313°
2026-04-22 16:50 -32.60677 149.64557 35620 ft 483 kts 313°
2026-04-22 16:51 -32.58270 149.61846 35843 ft 482 kts 313°
2026-04-22 16:51 -32.55881 149.59076 36043 ft 480 kts 310°
2026-04-22 16:51 -32.53700 149.56083 36251 ft 478 kts 306°
2026-04-22 16:52 -32.50213 149.50964 36327 ft 480 kts 306°
2026-04-22 16:52 -32.46013 149.44791 36359 ft 483 kts 306°
2026-04-22 16:53 -32.41756 149.38606 36356 ft 485 kts 306°
2026-04-22 16:53 -32.37475 149.32425 36357 ft 485 kts 306°
2026-04-22 16:54 -32.33191 149.26247 36341 ft 485 kts 306°
2026-04-22 16:54 -32.28909 149.20092 36347 ft 484 kts 306°
2026-04-22 16:55 -32.24636 149.13941 36346 ft 483 kts 306°
2026-04-22 16:55 -32.20376 149.07823 36350 ft 482 kts 306°
2026-04-22 16:56 -32.16140 149.01771 36348 ft 480 kts 307°
2026-04-22 16:56 -32.11978 148.95833 36339 ft 478 kts 306°
2026-04-22 16:57 -32.07680 148.89859 36337 ft 478 kts 311°
2026-04-22 16:57 -32.02631 148.84731 36338 ft 482 kts 322°
2026-04-22 16:58 -31.96999 148.80409 36326 ft 483 kts 324°
2026-04-22 16:58 -31.91335 148.76127 36339 ft 484 kts 324°
2026-04-22 16:59 -31.85688 148.71818 36333 ft 483 kts 323°
2026-04-22 16:59 -31.80052 148.67492 36321 ft 483 kts 323°
2026-04-22 17:00 -31.74425 148.63174 36321 ft 483 kts 323°
2026-04-22 17:00 -31.65981 148.56711 36322 ft 483 kts 323°
2026-04-22 17:01 -31.60381 148.52435 36307 ft 483 kts 323°
2026-04-22 17:01 -31.54741 148.48133 36308 ft 483 kts 323°
2026-04-22 17:02 -31.49108 148.43843 36295 ft 482 kts 323°
2026-04-22 17:02 -31.43477 148.39561 36302 ft 482 kts 323°
2026-04-22 17:03 -31.37843 148.35281 36297 ft 482 kts 323°
2026-04-22 17:03 -31.32247 148.31037 36295 ft 483 kts 323°
2026-04-22 17:04 -31.26600 148.26773 36295 ft 483 kts 324°
2026-04-22 17:04 -31.20961 148.22526 36286 ft 483 kts 324°
2026-04-22 17:05 -31.15312 148.18274 36284 ft 483 kts 324°
2026-04-22 17:05 -31.09662 148.14025 36289 ft 483 kts 324°
2026-04-22 17:06 -31.04012 148.09777 36284 ft 483 kts 324°
2026-04-22 17:06 -30.98370 148.05527 36284 ft 483 kts 324°
2026-04-22 17:07 -30.92723 148.01277 36272 ft 483 kts 323°
2026-04-22 17:07 -30.87196 147.97124 36280 ft 483 kts 324°
2026-04-22 17:08 -30.81547 147.92886 36276 ft 482 kts 324°
2026-04-22 17:08 -30.75914 147.88666 36275 ft 481 kts 324°
2026-04-22 17:09 -30.70315 147.84478 36274 ft 480 kts 324°
2026-04-22 17:09 -30.64693 147.80279 36271 ft 480 kts 324°
2026-04-22 17:10 -30.59080 147.76090 36272 ft 479 kts 324°
2026-04-22 17:10 -30.53471 147.71910 36266 ft 479 kts 324°
2026-04-22 17:11 -30.47866 147.67743 36266 ft 478 kts 324°
2026-04-22 17:11 -30.42286 147.63616 36253 ft 478 kts 324°
2026-04-22 17:12 -30.36663 147.59459 36262 ft 478 kts 324°
2026-04-22 17:12 -30.31048 147.55312 36249 ft 478 kts 324°
2026-04-22 17:13 -30.25213 147.51571 36263 ft 481 kts 331°
2026-04-22 17:13 -30.19164 147.48245 36250 ft 482 kts 331°
2026-04-22 17:14 -30.13102 147.44916 36250 ft 482 kts 331°
2026-04-22 17:14 -30.07088 147.41581 36242 ft 482 kts 331°
2026-04-22 17:15 -30.01001 147.38194 36235 ft 483 kts 331°
2026-04-22 17:15 -29.94995 147.34854 36238 ft 483 kts 331°
2026-04-22 17:16 -29.88926 147.31485 36242 ft 485 kts 331°
2026-04-22 17:16 -29.82831 147.28107 36234 ft 485 kts 331°
2026-04-22 17:17 -29.76728 147.24730 36232 ft 486 kts 331°
2026-04-22 17:17 -29.70628 147.21359 36228 ft 486 kts 330°
2026-04-22 17:18 -29.64569 147.18016 36225 ft 486 kts 330°
2026-04-22 17:18 -29.58470 147.14655 36220 ft 486 kts 330°